www.pogodaiklimat.ru

Погода и климат >> Архив погоды >> Беларусь >> Минск


АРХИВ ПОГОДЫ в Минске

Время (UTC), дата Ветер
(напр.,м/с)
 
Видим.   Явления Облачность Т
(С)
Тd
(С)
f
(%)
Тe
(С)
Тes
(С)
Комфортность P
(гПа)
Po
(гПа)
Тmin
(С)
Tmax
(С)
R
(мм)
R24
(мм)
S
(см)
09 19.06 СЗ 3 18 км 4/3 800 м
[Cu med, cong Ac trans]
+22.7 +15.0 62 +27 +35 душно 1014.4 988.5
12 19.06 З 3
{10}
23 км 5/5 840 м
[Cu med, cong Ac trans]
+25.4 +13.8 49 +28 +34 жарко 1013.4 987.8
15 19.06 З 3
{10}
22 км 4/0
[Ac trans]
+25.8 +13.5 47 +28 +31 жарко 1012.2 986.7
18 19.06 З 3
{10}
20 км 3/0
[Ac trans]
+23.6 +13.6 53 +26 +26 жарко 1011.8 986.1 +26.6
21 19.06 СЗ 2 21 км 3/0
[Ci fib]
+20.4 +13.1 63 +23 +23 комфорт 1013.1 987.0
00 20.06 З 2 21 км 4/0
[Ci fib]
+17.5 +12.1 71 +18 +18 тепло 1013.5 987.1
03 20.06 З 1 20 км ясно +15.7 +11.9 78 +16 +17 тепло 1013.6 987.0
06 20.06 З 1 19 км ясно +19.8 +11.9 60 +22 +31 комфорт 1012.3 986.2 +15.5
09 20.06 З 3 21 км 8/0
[Ci fib]
+24.6 +13.2 49 +27 +38 жарко 1010.2 984.6
12 20.06 З 3
{10}
21 км 9/6 600 м
[Cu med, cong Ac trans Ci fib]
+26.1 +12.5 43 +28 +31 жарко 1007.3 982.0
15 20.06 З 3-11
{12}
15 км гроза, ливневой дождь 10/8 800 м
[Sc Ac trans]
+23.0 +14.6 59 +27 +27 душно 1006.1 980.5
18 20.06 З 3
{11}
20 км в посл. час ливневой дождь {гроза} 8/0
[Ac trans Ci fib]
+18.5 +15.8 84 +19 +19 тепло 1005.0 978.9 +27.1 4
21 20.06 З 1 21 км ясно +16.7 +13.4 81 +18 +18 тепло 1006.1 979.8
00 21.06 СЗ 1 21 км ясно +13.6 +6.8 63 +14 +14 по сезону 1007.7 981.1
03 21.06 СЗ 1 21 км ясно +11.4 +4.9 64 +11 +12 прохладно 1009.0 982.1
06 21.06 СЗ 1 18 км 3/0
[Ac trans]
+14.9 +7.4 61 +16 +23 по сезону 1009.5 983.0 +11.2
09 21.06 З 2 22 км 9/8 870 м
[Sc diur, vesp Ac As]
+17.0 +5.0 45 +17 +19 по сезону 1009.0 982.7
12 21.06 З 2
{11}
20 км 8/6 840 м
[Cu Sc Ac cast]
+19.3 +6.0 42 +20 +24 по сезону 1007.8 981.8
15 21.06 СЗ 2 20 км 8/6 630 м
[Sc Ac cuf]
+16.0 +8.2 60 +16 +17 прохладно 1008.8 982.4
18 21.06 штиль 0 19 км в посл. час ливневой дождь 10/8 800 м
[Cb cap Ac und]
+11.1 +9.3 89 +10 +10 очень
холодно
1010.5 983.5 +20.3 2
21 21.06 штиль 0 21 км 5/0
[Ac cuf]
+11.9 +8.9 82 +11 +11 прохладно 1011.0 984.1
00 22.06 штиль 0 22 км ясно +10.5 +8.2 86 +10 +10 прохладно 1011.5 984.5
03 22.06 СЗ 1 20 км ясно +9.5 +5.9 78 +9 +10 холодно 1012.5 985.3
06 22.06 СЗ 2 22 км 8/8 1000 м
[Cu med, cong]
+13.1 +5.2 59 +13 +14 прохладно 1012.7 985.9 +9.2 0.4
09 22.06 З 3 23 км 8/6 1410 м
[Cu med, cong Ci fib]
+16.5 +5.0 46 +16 +21 по сезону 1012.1 985.7
12 22.06 З 3 18 км 8/5 1000 м
[Sc Ac trans Ci fib]
+18.3 +5.1 42 +19 +23 по сезону 1011.3 985.1
15 22.06 ЮЗ 2 22 км 9/6 870 м
[Sc Ac trans]
+19.4 +6.8 44 +21 +22 комфорт 1009.3 983.2
18 22.06 СВ 2 22 км в посл. час дождь 9/0
[Ac trans]
+13.2 +9.7 79 +13 +13 холодно 1010.4 983.7 +20.0
21 22.06 С 1 19 км слабый дождь 10/10 480 м
[Sc]
+11.9 +8.5 80 +12 +12 прохладно 1010.3 983.4
00 23.06 ЮВ 1 11 км {дождь} 8/0
[Ac trans]
+11.5 +9.0 85 +11 +11 по сезону 1008.9 982.0
03 23.06 штиль 0 19 км 8/0
[Ac trans]
+12.0 +8.8 81 +11 +12 прохладно 1007.8 981.0
06 23.06 штиль 0 23 км 9/3 870 м
[Sc Ac trans]
+14.4 +8.3 67 +14 +17 по сезону 1007.3 980.8 +11.0
09 23.06 штиль 0 23 км 10/5 800 м
[Sc Ac trans]
+17.9 +8.2 53 +18 +22 по сезону 1005.8 979.7
12 23.06 Ю 1 18 км 10/8 700 м
[Sc Ac trans]
+18.8 +8.2 50 +20 +22 по сезону 1005.0 979.0
15 23.06 С 1 18 км 10/10 500 м
[Sc]
+19.4 +9.1 51 +21 +21 комфорт 1004.7 978.7
18 23.06 штиль 0 19 км 5/0
[Ac trans Ci fib]
+16.2 +10.8 70 +16 +16 прохладно 1005.9 979.6 +20.3
21 23.06 штиль 0 17 км 4/0
[Ac trans]
+13.6 +11.1 85 +13 +13 прохладно 1007.3 980.7
00 24.06 штиль 0 16 км 8/6 900 м
[Sc Ac trans]
+14.0 +11.7 86 +14 +14 по сезону 1007.7 981.1
03 24.06 штиль 0 13 км 5/0
[Cc]
+12.8 +11.7 93 +12 +13 прохладно 1007.9 981.2
06 24.06 ЮЗ 1 17 км 10/0
[Ac As]
+16.7 +12.2 75 +18 +20 тепло 1007.2 980.9 +12.6
09 24.06 Ю 1 8000 м слабый дождь 10/10 540 м
[Sc]
+15.3 +13.4 88 +16 +16 прохладно 1007.0 980.6
12 24.06 ЮВ 1 8000 м слабый дождь 10/10 400 м
[Sc]
+16.5 +15.3 93 +17 +17 прохладно 1006.4 980.1
15 24.06 ЮВ 1 14 км {дождь} 10/10 300 м
[Sc]
+17.9 +15.5 86 +19 +19 по сезону 1006.0 979.9
18 24.06 СЗ 2 16 км в посл. час ливневой дождь 9/8 400 м
[Sc Ac trans]
+15.7 +15.1 96 +16 +16 прохладно 1007.3 980.9 +17.9 9
21 24.06 З 2 15 км 8/6 630 м
[Sc Ac trans]
+15.1 +13.9 93 +15 +15 по сезону 1008.2 981.7
00 25.06 ЮЗ 2 12 км 8/4 1230 м
[Sc Ac trans]
+14.3 +13.3 94 +14 +14 по сезону 1008.1 981.5
03 25.06 ЮЗ 1 12 км 9/4 1000 м
[Sc Ac trans]
+14.7 +13.4 92 +15 +15 по сезону 1007.5 981.0
06 25.06 З 2 13 км 10/10 330 м
[Sc]
+16.7 +14.6 87 +17 +17 по сезону 1007.1 980.8 +14.2
09 25.06 З 2
{10}
21 км в посл. час ливневой дождь 8/6 630 м
[Sc Ac As]
+17.6 +14.1 80 +18 +22 по сезону 1007.4 981.2
12 25.06 З 2
{12}
18 км {ливн. осадки} 8/4 700 м
[Sc Ac cast Ci]
+20.8 +10.4 51 +23 +29 комфорт 1007.5 981.6
15 25.06 З 2-10
{11}
23 км 8/4 630 м
[Sc Ac cast Cs]
+21.8 +11.4 52 +24 +26 комфорт 1007.1 981.3
18 25.06 З 1
{10}
20 км 8/0
[Ac cast]
+20.4 +12.4 60 +24 +24 комфорт 1006.8 980.9 +23.3 0.9
21 25.06 ЮЗ 1 20 км 8/0
[Ac trans]
+19.6 +13.6 68 +22 +22 комфорт 1006.4 980.4
00 26.06 З 2 19 км в посл. час ливневой дождь 9/8 360 м
[Frnb Ac cast]
+17.3 +15.0 86 +18 +18 тепло 1006.3 980.1
03 26.06 СЗ 1 18 км 10/10 300 м
[Frnb]
+17.0 +14.9 87 +18 +18 тепло 1006.2 980.0
06 26.06 СЗ 1 20 км 10/9 500 м
[Frnb Ac inh]
+17.2 +10.5 65 +18 +19 тепло 1006.3 980.1 +16.7 0.3

 

Местоположение метеостанции Минск (город Минск, Беларусь): широта 53.93 долгота 27.63 высота над уровнем моря 231 м.

В архиве по умолчанию представлена погода в Минске за последнюю неделю. Архивные данные за месяц целиком и за предыдущие месяцы, начиная с января 2011 года, Вы можете получить, выбрав интересующий диапазон дат из раскрывающегося списка и нажав кнопку "Ввод!".

Внимание! Время в таблицах - всемирное. Для получения местного времени необходимо прибавить поправку, которая в Минске равна 3 ч.

Смотрите также архив погоды в соседних городах и на ближайших метеорологических станциях:

Погода в Марьиной Горке (Минская область, Беларусь) (63 км)
Погода в Борисове (Минская область, Беларусь) (68 км)
Погода в Воложине (Минская область, Беларусь) (75 км)
Погода в Вилейке (Минская область, Беларусь) (77 км)
Погода в Столбцах (Минская область, Беларусь) (78 км)
Погода в Березино (Минская область, Беларусь) (90 км)
Погода в Барановичах (Брестская область, Беларусь) (92 км)
Погода в Слуцке (Минская область, Беларусь) (100 км)
Погода в Докшицах (Витебская область, Беларусь) (106 км)
Погода в Кличеве (Могилевская область, Беларусь) (121 км)

Пояснения к столбцам:

Ветер - указаны скорость ветра в м/с - средняя за 10 мин, порывы в срок и между сроками (в фигурных скобках) и направление, откуда дует ветер: С - северный, СВ - северо-восточный, В - восточный, ЮВ - юго-восточный, Ю - южный, ЮЗ - юго-западный, З - западный, СЗ - северо-западный.
Видимость - горизонтальная дальность видимости в метрах или километрах. При видимости от 1 до 10 км при отсутствии осадков обычно наблюдается дымка, при ухудшении видимости до 1 км и менее - туман. В сухую погоду видимость может ухудшаться дымом, пылью или мглою.
Явления - указаны атмосферные явления, наблюдавшиеся в срок или в последний час перед сроком; фигурными скобками обозначены явления, наблюдавшиеся между сроками (за 1-3 часа до срока); квадратными скобками обозначены град или гололедные отложения с указанием их диаметра в мм.
Облачность - указаны через наклонную черту общая и нижняя облачность в баллах и высота нижней границы облаков в метрах; квадратными скобками обозначены формы облаков: Ci - перистые, Cs - перисто-слоистые, Cc - перисто-кучевые, Ac - высококучевые, As - высокослоистые, Sc - слоисто-кучевые, Ns - слоисто-дождевые, Cu - кучевые, Cb - кучево-дождевые. Подробнее классификацию облаков см. в Атласе облаков (PDF).
T - Температура воздуха - температура, измеренная на высоте 2 м над землей.
Td - Температура точки росы - температура, при понижении до которой содержащийся в воздухе водяной пар достигнет насыщения.
f - Относительная влажность воздуха - влажноcть воздуха, измеренная на высоте 2 м над землей.
Te - Эффективная температура - температура, которую ощущает одетый по сезону человек в тени. Характеристика душности погоды. При расчете учитывается влияние влажности воздуха и скорости ветра на теплоощущения человека.
Tes - Эффективная температура на солнце - температура, которую ощущает человек, с поправкой на солнечный нагрев. Характеристика знойности погоды. Зависит от высоты солнца над горизонтом, облачности и скорости ветра. Ночью, в пасмурную погоду, а также при ветре 12 м/с и более поправка равна нулю.
P - Атмосферное давление - приведенное к уровню моря атмосферное давление.
Po - Атмосферное давление - измеренное на уровне метеостанции атмосферное давление.
Tmin - Минимальная температура - минимум температуры воздуха на высоте 2 м над землей.
Tmax - Максимальная температура - максимум температуры воздуха на высоте 2 м над землей.
R - Количество осадков - Количество выпавших осадков за период времени, мм. При наведении курсора мыши на число - период времени, за который выпало указанное количество осадков.
R24 - Количество осадков - Количество выпавших осадков за 24 часа, мм.
S - Снежный покров - Высота снежного покрова, см. При наведении курсора мыши на число - состояние снежного покрова и степень покрытия местности в баллах.